Wind_Speed
81 80 78 76 74 73 71 70 68 67 66 65 64 63 62 61 60 59 58 57 56 55 54 53 52 52 51 50 50 49 49 48 48 48 48 47 47 47 46 46 46 45 45 44 42 41 39 37 35 34 32 30 28 26 23 21 20 19 18 17 17 19 21 23 26 29 31 34 36 39 41 43 45 47 49 51 52 54 55 56 57 58 59 59 60 60
79 77 76 74 72 71 70 68 67 66 65 64 63 62 61 60 60 59 58 57 56 55 54 53 52 51 51 50 50 49 49 48 48 48 48 47 47 47 46 46 45 45 44 44 43 41 39 37 35 34 32 31 29 27 25 23 22 21 20 20 20 21 22 24 26 28 31 33 35 37 39 40 42 44 46 48 49 51 53 54 56 57 58 59 60 61
77 75 74 72 70 69 68 67 66 65 64 63 62 61 60 60 59 58 57 56 55 54 53 52 52 51 51 50 50 49 49 48 48 48 48 48 47 47 46 45 45 44 44 43 43 42 41 39 36 34 33 31 30 28 27 26 24 23 23 22 22 23 24 25 27 29 31 33 35 36 38 39 41 42 43 45 47 48 50 52 53 55 56 58 59 60
74 73 72 70 69 68 67 66 65 64 63 62 61 60 60 59 58 57 56 55 55 54 53 52 52 51 51 50 50 49 49 49 49 48 48 48 47 47 46 45 44 44 43 43 42 42 41 40 38 36 34 32 31 30 29 28 27 26 25 25 25 25 26 27 28 30 31 33 35 36 38 39 40 42 43 44 45 46 48 49 51 52 54 56 57 59
72 71 69 68 67 66 65 65 64 63 62 61 60 60 59 58 57 56 56 55 54 53 53 52 52 51 51 50 50 50 49 49 49 49 49 48 48 47 46 45 44 43 43 42 42 41 41 40 39 38 36 34 33 31 30 30 29 29 28 28 28 28 28 29 30 31 32 33 35 37 38 40 41 42 43 44 45 46 47 48 49 50 52 53 55 57
70 69 67 67 66 65 64 63 63 62 61 60 60 59 58 57 57 56 55 54 54 53 53 52 52 51 51 50 50 50 50 49 49 49 49 49 49 48 47 46 45 44 43 42 41 41 40 40 40 39 38 36 35 33 32 32 31 31 30 30 30 30 31 31 32 32 33 34 36 37 39 40 41 43 44 45 46 46 47 48 48 49 50 52 53 55
68 67 66 65 64 63 63 62 61 60 60 59 59 58 57 57 56 55 55 54 53 53 53 52 52 51 51 51 50 50 50 50 50 50 50 49 49 48 48 47 46 45 43 42 41 40 40 39 39 39 38 38 37 36 35 34 33 33 33 33 33 33 33 33 34 34 35 36 37 38 39 40 42 43 44 45 46 47 48 49 50 50 51 52 53 54
66 65 64 63 63 62 61 61 60 59 59 58 58 57 57 56 56 55 54 54 53 53 52 52 52 51 51 51 51 50 50 50 50 50 50 49 49 49 48 48 47 46 44 43 42 41 40 39 39 38 38 38 38 37 37 36 36 35 35 35 35 35 35 35 36 36 37 38 38 39 40 41 42 43 44 46 47 48 49 50 51 52 53 53 54 55
64 64 63 62 61 60 60 59 59 58 57 57 57 56 56 56 55 55 54 54 53 53 52 52 52 51 51 51 50 50 50 50 50 50 49 49 49 49 48 48 47 46 45 44 43 41 40 39 38 38 38 38 38 38 38 38 38 38 37 37 37 37 37 37 38 38 39 39 40 41 42 42 43 44 45 46 47 48 50 51 52 53 54 55 56 57
63 62 61 60 59 59 58 58 57 57 56 56 56 55 55 55 55 54 54 54 53 52 52 52 51 51 51 50 50 50 49 49 49 49 49 49 48 48 48 48 47 47 46 45 44 42 41 40 39 38 37 37 37 38 38 39 39 39 39 39 39 39 40 40 40 40 41 41 42 43 43 44 45 46 46 47 48 49 50 51 52 54 55 56 57 58
61 60 59 59 58 57 57 56 56 55 55 55 55 54 54 54 53 53 53 53 52 52 51 51 51 50 50 50 49 49 49 48 48 48 48 47 47 47 47 47 46 46 45 45 44 43 42 41 39 38 38 37 37 38 38 39 39 39 40 40 41 41 41 42 42 42 43 43 44 44 45 46 47 47 48 49 49 50 51 52 53 54 55 56 58 59
60 59 58 57 56 56 55 55 54 54 54 53 53 53 53 52 52 52 52 52 51 51 50 50 49 49 49 49 48 48 48 47 47 47 47 46 46 46 46 46 45 45 45 44 44 43 42 41 40 39 38 38 38 38 38 38 39 39 40 41 41 42 42 43 43 44 45 45 46 46 47 48 48 49 50 50 51 52 53 53 54 55 56 57 58 59
58 57 57 56 55 54 54 53 53 52 52 52 52 51 51 51 50 50 50 50 50 49 49 49 48 48 48 47 47 47 47 46 46 46 46 45 45 45 45 45 45 44 44 44 44 43 43 42 41 40 40 39 39 38 38 38 39 39 40 40 41 42 43 43 44 45 46 46 47 48 49 49 50 51 51 52 53 54 54 55 56 57 57 58 59 60
57 56 55 55 54 53 52 52 52 51 51 50 50 50 50 50 49 49 49 49 48 48 48 47 47 47 47 46 46 46 46 46 46 45 45 45 45 45 45 45 45 44 44 44 44 44 43 43 42 42 41 40 40 40 40 40 40 40 40 41 41 42 43 43 44 45 46 47 48 49 49 50 51 52 53 53 54 55 56 57 57 58 59 60 60 61
56 55 54 54 53 52 52 51 51 50 50 50 49 49 49 49 48 48 48 48 47 47 47 47 47 46 46 46 46 46 46 46 46 46 45 45 45 45 45 45 45 45 45 45 45 44 44 44 43 43 42 42 42 41 41 41 41 41 42 42 42 42 43 44 44 45 46 47 48 49 50 51 51 52 53 54 55 56 57 58 59 59 60 61 62 63
54 54 53 53 52 52 51 50 50 50 49 49 49 48 48 48 48 47 47 47 47 47 46 46 46 46 46 46 45 45 46 46 46 46 46 46 45 45 45 46 46 46 45 45 45 46 45 45 45 45 44 44 43 43 43 43 43 43 44 44 44 44 45 45 45 46 47 47 48 49 50 51 52 53 54 55 56 56 57 58 59 60 61 62 63 64
54 53 52 52 51 51 51 50 50 49 49 49 48 48 48 48 47 47 47 47 47 47 46 46 46 46 47 46 46 46 46 46 47 47 47 46 46 46 46 46 46 46 46 46 46 46 46 46 46 46 46 46 45 45 45 45 45 45 46 46 46 47 47 47 47 48 48 49 50 50 51 52 53 53 54 55 56 57 58 59 60 61 62 63 64 64
53 52 52 51 51 51 50 50 50 49 49 49 49 48 48 48 47 47 47 47 47 47 46 46 46 46 46 47 46 46 46 46 47 47 47 47 46 46 46 46 47 47 47 47 47 47 47 47 47 47 47 47 47 47 47 47 47 47 48 48 48 49 49 49 50 50 51 51 52 52 53 53 54 55 56 57 57 58 59 60 61 62 63 64 65 65
53 52 52 51 51 51 50 50 50 49 49 49 49 48 48 48 47 47 47 47 47 46 46 46 46 46 46 46 46 46 46 47 47 47 47 47 47 47 47 47 47 47 48 48 48 48 48 49 49 49 48 48 48 48 48 49 49 49 50 50 50 51 51 51 52 52 53 53 54 54 55 56 56 57 58 59 59 60 61 62 63 64 64 65 66 67
52 52 52 51 51 51 50 50 50 49 49 49 49 48 48 48 47 47 47 47 47 46 46 46 46 46 46 46 47 47 47 47 48 48 48 48 48 48 47 48 48 49 49 49 49 49 50 50 50 50 50 50 50 50 50 50 51 51 51 52 52 52 53 53 54 54 54 55 56 56 57 57 58 59 60 61 61 62 63 64 65 66 66 67 68 69
52 52 52 51 51 51 51 50 50 49 49 49 49 48 48 48 48 47 47 47 47 47 46 46 46 46 46 47 47 47 47 48 49 49 49 49 49 49 49 49 49 50 50 50 51 51 51 52 52 52 52 51 51 51 52 52 52 53 53 53 54 54 54 55 55 56 56 57 57 58 59 59 60 61 62 63 63 64 65 66 67 68 68 69 70 71
52 52 52 51 51 51 51 50 50 50 49 49 49 48 48 48 48 48 48 47 47 47 47 47 47 47 47 47 48 48 49 49 50 50 51 51 51 51 50 50 51 51 52 52 52 53 53 53 54 54 53 53 53 53 53 53 54 54 55 55 55 56 56 56 57 57 58 58 59 60 61 61 62 63 64 65 65 66 67 68 69 70 71 72 72 73
52 52 52 51 51 51 51 50 50 50 50 49 49 49 49 48 48 48 48 48 48 48 48 48 48 48 48 49 49 50 50 50 51 52 52 53 53 53 52 52 53 53 54 54 54 55 55 55 55 56 55 55 55 55 55 55 56 56 56 57 57 57 58 58 58 59 59 60 61 62 62 63 64 65 66 67 67 68 69 70 71 72 73 74 75 76
52 52 52 52 51 51 51 51 51 50 50 50 50 49 49 49 49 49 49 49 49 49 49 49 49 49 50 50 50 51 51 52 52 53 54 55 55 55 55 55 55 56 56 56 56 57 57 58 58 58 58 57 57 57 57 57 58 58 58 58 59 59 59 60 60 61 61 62 63 63 64 65 66 67 67 68 69 70 71 72 73 74 75 76 77 78
52 52 52 52 52 52 51 51 51 51 51 51 51 50 50 50 50 50 50 50 50 50 51 51 51 51 51 51 52 52 53 53 54 54 55 56 57 57 57 57 57 58 58 58 59 59 60 60 60 60 60 60 59 59 59 59 60 60 60 60 61 61 61 62 62 63 63 64 64 65 66 67 68 69 69 70 71 72 73 74 75 76 77 78 79 80
52 52 52 52 52 52 52 52 52 52 52 52 52 52 52 52 52 52 52 52 52 52 52 52 52 52 52 53 53 53 54 54 55 56 56 57 58 59 59 59 59 60 60 61 61 61 61 62 62 62 62 62 62 61 61 62 62 62 62 62 62 63 63 64 64 64 65 66 66 67 68 69 70 70 71 72 73 73 74 75 76 77 78 79 80 80
52 52 52 52 52 52 52 52 52 53 53 53 53 53 53 53 53 53 53 53 53 53 53 53 54 54 54 54 54 55 55 56 56 57 58 59 60 60 60 60 61 62 62 63 63 63 63 64 64 64 64 64 64 63 63 63 64 64 64 64 65 65 65 66 66 67 67 68 69 69 70 71 71 72 72 73 73 74 75 75 76 77 78 78 79 80
53 53 53 53 53 53 53 53 53 53 53 54 54 54 54 54 55 55 55 54 54 55 55 55 55 55 56 56 56 56 57 57 58 58 59 60 61 62 62 62 63 63 64 65 65 65 65 65 65 66 66 66 66 66 65 65 65 66 66 66 66 67 67 68 68 69 69 70 70 71 72 72 72 73 73 73 74 74 74 75 75 76 77 77 78 79
54 54 54 53 53 53 53 53 53 54 54 54 54 55 55 55 56 56 56 56 56 56 56 57 57 57 57 57 58 58 58 59 59 60 61 62 63 64 64 64 65 66 66 67 67 67 67 67 67 67 67 67 67 67 67 67 67 68 68 68 68 69 69 70 70 71 71 71 72 72 73 73 73 73 73 73 73 73 73 74 74 74 75 75 76 76
55 55 55 55 54 54 54 54 54 54 54 55 55 56 56 56 57 57 57 57 58 58 58 58 58 58 59 59 60 60 60 61 61 61 62 63 65 65 66 66 67 67 68 69 69 70 69 69 68 68 68 69 69 69 69 69 69 69 70 70 70 70 71 71 71 72 72 73 73 73 73 73 73 73 72 72 72 72 72 72 72 72 72 73 73 74
56 56 56 56 56 56 55 55 55 55 55 56 56 56 57 57 57 58 58 59 59 59 59 60 60 60 60 61 61 62 62 63 63 63 64 65 66 67 68 68 69 69 70 70 71 72 72 71 70 70 70 70 70 71 71 71 71 71 71 71 72 72 72 72 73 73 73 73 73 73 73 72 72 72 71 71 70 70 70 70 69 69 70 70 70 71
57 57 57 57 57 57 57 57 57 56 57 57 57 57 57 58 58 59 59 59 60 60 61 61 61 61 62 62 63 63 64 64 64 65 65 67 68 69 69 70 71 71 72 72 72 73 73 74 73 72 71 71 71 72 72 72 73 73 73 73 73 74 74 74 74 74 74 73 73 72 72 71 71 70 70 69 69 68 68 67 67 67 67 67 67 68
58 58 58 58 58 58 58 58 58 58 58 58 58 58 58 59 59 59 60 60 61 61 61 62 62 63 63 64 64 65 65 66 66 66 67 68 69 70 71 72 72 73 73 74 74 74 75 75 75 74 74 73 73 73 73 73 73 74 74 74 75 75 75 75 74 74 73 73 72 71 70 70 69 68 68 67 67 66 66 65 65 65 65 65 65 66
58 59 59 59 59 59 59 59 59 59 59 59 59 59 60 60 60 60 61 61 62 62 62 63 63 64 65 65 66 66 67 67 67 68 69 70 71 72 73 73 74 74 75 75 76 76 76 76 76 76 76 75 75 74 74 74 74 74 75 75 75 76 75 75 74 74 73 72 71 70 69 68 67 66 66 65 65 65 64 64 63 63 63 63 64 64
59 59 59 60 60 60 60 60 60 61 60 60 61 61 61 61 61 62 62 62 63 63 63 64 64 65 66 66 67 68 68 69 69 70 70 71 72 73 74 75 75 76 76 77 77 77 77 77 77 77 77 77 77 76 75 75 75 75 75 75 75 75 75 74 74 73 72 71 69 68 67 66 65 65 64 64 63 63 63 62 62 62 62 62 62 63
59 59 60 60 61 61 61 61 62 62 62 62 62 62 62 62 62 63 63 63 64 64 65 65 65 66 67 67 68 69 70 70 70 71 72 73 74 75 76 76 77 77 77 78 78 78 78 79 78 78 78 79 79 78 77 76 76 76 76 75 75 74 74 73 72 71 70 69 68 66 65 64 64 63 63 62 62 62 62 61 61 61 61 61 61 62
59 60 60 61 61 62 62 62 62 63 63 63 63 63 63 63 64 64 64 65 65 66 66 66 67 67 68 68 69 69 70 71 72 73 73 74 75 76 77 78 78 78 78 79 79 79 79 80 80 80 80 80 80 80 79 78 77 77 76 75 74 73 72 71 70 69 68 67 66 65 64 63 62 62 62 61 61 61 61 61 61 61 61 61 61 62
60 60 61 62 62 62 63 63 63 63 64 64 64 64 64 64 65 65 66 66 66 67 67 68 68 68 69 69 70 70 71 72 73 74 74 75 76 77 78 79 79 79 79 79 79 80 80 80 81 81 81 81 81 80 80 79 78 77 76 75 73 72 70 69 68 66 66 65 64 63 62 62 61 61 61 60 60 60 60 60 60 60 60 61 61 62
61 61 62 62 63 63 63 64 64 64 64 65 65 65 65 65 66 66 67 67 68 68 69 69 70 70 70 70 71 71 72 73 74 75 76 76 77 78 79 79 80 80 80 80 80 80 80 81 81 81 82 82 81 81 80 79 78 77 76 74 72 70 68 66 65 64 63 62 62 62 61 61 60 60 60 60 60 60 60 60 60 60 61 61 61 62
61 62 62 63 63 64 64 65 65 65 65 65 65 65 66 66 66 67 68 68 69 69 70 70 71 71 71 72 72 73 73 74 75 76 77 78 78 79 79 80 80 80 80 80 80 80 81 81 81 81 81 81 81 81 79 78 77 75 74 73 71 69 66 64 63 61 60 60 60 60 60 60 60 60 60 60 60 60 60 60 60 61 61 61 61 61
62 63 63 64 64 64 65 65 65 65 65 66 66 66 66 66 67 68 68 69 70 70 71 71 71 72 72 73 73 74 75 75 76 77 78 79 79 80 80 80 80 80 81 81 81 81 81 81 81 81 81 81 80 79 78 77 75 73 72 71 70 68 65 63 61 59 58 58 58 58 58 59 59 59 60 60 60 60 60 60 61 61 60 60 60 60
63 64 64 64 65 65 65 66 66 66 66 66 66 66 67 67 68 68 69 70 71 71 72 72 72 73 73 74 74 75 76 76 77 78 79 79 80 80 81 81 81 81 81 81 81 81 81 81 81 81 81 80 79 78 76 74 72 71 69 68 67 66 64 61 59 58 57 56 56 56 57 57 58 59 59 60 60 60 60 60 60 60 60 59 59 58
64 64 65 65 66 66 66 66 66 66 66 66 66 67 67 67 68 69 70 71 72 72 73 73 73 74 74 75 76 76 77 78 78 79 80 80 80 81 81 81 81 81 81 82 82 82 82 81 81 80 79 78 76 75 74 72 70 68 67 66 65 64 63 60 58 56 56 55 55 55 55 56 57 58 58 59 60 60 60 60 60 59 58 58 57 55
65 65 66 66 66 67 67 67 67 67 67 67 67 67 68 68 69 70 71 72 72 73 73 74 74 75 75 76 77 78 78 79 79 80 80 80 81 81 81 81 82 82 82 82 82 82 82 81 80 79 77 76 74 73 71 69 68 66 65 63 62 62 61 59 58 56 55 55 54 54 55 55 56 57 58 58 59 59 59 59 59 58 56 55 54 53
65 66 66 67 67 67 68 68 68 68 68 68 68 68 69 69 70 71 72 72 73 74 74 74 75 76 77 77 78 78 79 80 80 80 80 81 81 81 81 82 82 82 82 82 82 82 82 81 79 77 75 73 72 70 68 67 66 65 63 62 61 60 59 58 57 56 55 55 54 54 54 55 55 56 57 58 58 58 58 57 56 55 53 52 51 50
66 66 67 67 68 68 68 68 68 68 68 69 69 69 70 70 71 72 72 73 74 74 75 75 76 77 78 78 79 79 80 80 80 80 81 81 81 81 82 82 82 83 83 82 82 81 80 79 77 75 73 71 69 67 66 65 64 63 62 60 59 58 58 57 56 55 55 55 54 54 54 54 55 56 56 57 57 57 56 54 53 52 50 49 49 48
66 67 67 68 68 68 69 69 69 69 69 70 70 70 71 71 72 72 73 74 74 75 76 76 77 78 78 79 79 80 80 80 81 81 81 81 81 81 82 82 82 82 82 82 81 80 78 76 74 72 70 68 67 65 64 63 62 61 60 59 58 57 57 56 55 55 55 55 54 54 54 54 55 55 56 56 55 54 53 51 50 48 48 47 46 46
67 67 68 68 68 69 69 69 69 69 70 70 71 71 72 72 73 73 74 74 75 76 76 77 78 78 79 79 80 80 80 80 81 81 81 81 81 82 82 82 82 82 81 80 79 78 76 73 71 69 67 66 65 64 63 61 60 59 59 58 57 56 56 55 55 54 54 54 54 54 54 54 55 55 55 55 54 52 51 49 47 46 45 45 44 44
67 68 68 68 69 69 69 69 70 70 71 71 72 72 73 73 73 74 75 75 76 76 77 78 78 79 79 80 80 80 80 80 81 81 81 81 81 82 82 82 81 81 80 78 77 75 73 71 69 66 65 63 63 62 61 60 59 58 57 56 56 55 55 55 54 54 54 54 54 54 54 54 54 54 54 53 52 50 48 47 45 44 43 43 42 42
68 68 69 69 69 70 70 70 70 71 71 72 72 73 73 74 74 75 75 76 76 77 78 78 79 79 80 80 80 80 80 81 81 81 81 81 81 81 81 81 80 79 77 75 73 71 69 68 66 65 63 61 61 61 61 60 58 57 56 56 55 55 55 55 54 54 54 53 53 53 53 53 53 53 52 51 50 48 47 45 44 43 42 41 41 41
69 69 69 70 70 70 71 71 71 72 72 73 73 74 74 74 75 75 76 76 77 77 78 78 79 79 80 80 80 80 81 81 81 82 82 81 81 81 80 79 77 76 74 71 69 68 66 66 65 64 62 60 59 59 59 59 58 57 56 55 55 54 54 54 54 54 53 53 53 53 53 52 52 51 50 49 48 46 45 44 43 42 40 40 40 40
Wind_Direction
307 307 307 306 306 306 306 306 306 306 306 306 306 306 306 306 306 306 306 306 305 305 305 304 304 303 303 303 303 303 303 304 304 305 305 306 307 308 309 310 311 311 312 312 313 313 313 313 313 312 312 311 310 309 306 303 300 296 289 279 267 256 248 244 242 242 242 242 242 242 242 242 242 242 242 241 241 241 241 241 241 240 240 239 239 239
306 306 306 306 306 306 305 305 305 305 305 305 305 305 305 305 305 305 305 305 305 305 304 304 304 303 303 303 303 303 303 303 304 304 305 305 306 307 308 309 309 310 310 310 311 311 311 310 310 309 308 307 305 303 301 297 293 289 285 280 273 265 257 251 247 245 244 244 245 245 246 246 247 247 247 247 247 246 246 246 245 245 244 243 243 242
306 306 306 306 305 305 305 305 305 305 305 305 305 305 305 305 305 305 305 305 305 304 304 304 304 303 303 303 303 303 303 303 303 304 304 305 305 306 307 307 308 308 308 309 309 309 308 308 307 305 304 302 301 299 296 293 289 285 281 277 273 268 263 257 253 249 248 246 246 246 247 247 248 248 248 248 248 248 248 248 248 248 247 247 246 245
306 305 305 305 305 305 305 304 304 304 304 304 304 304 304 304 304 304 304 304 304 304 304 304 303 303 303 303 303 303 303 303 303 303 303 304 304 305 305 306 306 306 307 307 307 306 306 305 305 303 301 299 297 295 292 290 286 282 278 275 271 268 265 262 258 255 252 250 249 248 248 248 249 249 249 249 248 248 248 248 248 247 247 247 247 246
305 305 305 305 305 304 304 304 304 304 304 303 304 304 304 304 304 304 304 304 304 304 304 303 303 303 303 303 302 303 302 303 303 303 303 303 304 304 304 304 305 305 305 305 304 304 304 303 302 301 299 297 294 292 289 287 284 281 278 274 271 268 266 263 261 258 256 254 252 251 250 250 250 250 250 250 250 249 249 248 247 246 246 246 245 245
305 304 304 304 304 304 304 303 303 303 303 303 303 303 303 303 303 303 303 303 303 303 303 303 303 303 302 302 302 302 302 302 302 302 302 303 303 303 303 304 304 303 303 303 303 302 302 301 300 299 298 296 293 291 288 285 282 279 277 274 271 269 266 264 262 260 259 257 256 254 253 252 252 251 251 251 252 252 251 251 250 249 248 247 246 245
304 304 304 304 303 303 303 303 303 303 303 302 303 302 302 303 303 303 303 303 303 303 303 302 302 302 302 302 302 302 302 302 302 302 302 303 303 303 303 303 303 303 303 302 302 301 300 299 298 297 296 294 292 290 287 285 282 279 276 274 272 269 267 265 263 262 261 259 258 257 256 255 254 254 253 253 253 253 253 253 253 252 251 250 249 248
304 304 303 303 303 303 303 302 302 302 302 302 302 302 302 302 302 302 302 302 302 302 302 302 302 302 302 301 301 301 301 302 302 302 303 303 303 304 304 304 304 303 303 302 301 300 299 298 296 295 294 292 291 289 287 285 283 280 278 275 273 270 268 266 264 263 262 261 260 259 258 257 256 256 255 255 254 254 254 254 254 254 253 253 252 252
303 303 303 303 303 303 303 302 302 302 302 302 302 302 302 302 302 302 302 302 302 302 302 301 301 301 301 301 301 301 302 302 302 303 303 303 304 304 304 304 304 304 303 303 302 301 299 298 296 294 292 291 289 288 286 285 283 281 279 277 275 273 270 269 267 265 263 262 261 260 259 259 258 258 257 256 256 255 255 255 254 254 254 254 254 253
303 303 303 303 303 303 303 302 302 302 302 302 302 302 302 302 302 302 302 301 301 302 302 301 301 301 301 301 301 302 302 302 303 303 303 304 304 304 304 304 304 304 304 303 303 302 300 299 297 295 293 291 288 287 285 284 282 281 279 278 276 274 273 271 269 267 266 264 263 262 261 261 260 259 259 258 258 257 257 256 255 255 255 254 254 254
303 303 303 303 303 303 303 303 303 302 302 302 302 302 302 302 302 302 302 301 302 302 302 301 302 301 302 302 302 302 303 303 303 304 304 304 304 305 305 305 304 304 304 304 303 302 301 300 299 297 294 292 289 287 285 284 282 281 279 278 277 275 274 272 271 269 268 267 266 264 263 262 262 261 261 260 260 259 258 258 257 257 256 256 255 255
303 303 303 303 303 303 303 303 303 303 302 302 302 302 302 302 302 301 301 302 302 302 302 302 302 302 302 303 303 304 304 304 304 304 305 305 305 305 305 304 304 304 304 304 303 303 302 301 300 298 296 294 292 289 287 285 283 281 280 278 277 276 274 273 272 271 270 268 267 266 265 265 264 263 262 262 261 261 260 260 259 259 258 257 257 257
303 303 303 303 303 304 304 303 303 303 303 303 302 302 302 302 302 302 302 302 302 302 302 303 303 303 303 304 304 305 305 305 305 305 305 305 305 305 305 304 304 304 304 304 303 303 302 301 300 299 298 296 294 292 290 287 285 283 281 280 278 276 275 274 273 271 271 270 269 268 267 266 265 265 264 263 263 262 262 261 261 260 260 259 259 258
303 303 303 304 304 304 304 304 304 304 303 303 303 303 303 303 303 302 303 302 303 303 303 303 304 304 304 305 305 305 305 305 305 305 305 305 305 305 304 304 304 304 303 303 303 302 302 301 300 299 298 296 295 293 292 290 288 286 284 282 280 278 277 275 274 273 272 271 270 269 268 267 267 266 265 265 264 263 263 262 262 262 261 261 260 260
303 303 303 304 304 304 304 304 304 304 304 304 303 303 303 303 303 303 303 303 303 304 304 304 304 305 305 305 306 306 305 305 305 305 305 305 305 305 304 304 303 303 303 302 302 301 301 300 299 298 297 296 295 294 292 291 289 287 286 284 282 280 279 277 276 275 273 272 271 270 270 269 268 268 267 266 265 265 264 264 263 263 262 262 262 261
303 303 303 303 304 304 304 304 304 304 304 304 304 304 304 304 304 304 304 304 304 304 305 305 305 305 305 305 305 305 305 305 305 304 305 304 305 304 304 304 303 303 303 302 302 301 300 299 298 298 297 296 295 294 292 291 289 288 286 285 284 282 281 279 278 276 275 274 273 272 271 270 270 269 268 268 267 266 266 265 265 264 264 263 263 262
302 303 303 303 304 304 304 304 304 304 304 304 304 304 304 304 304 304 304 305 305 305 305 305 305 305 305 305 305 305 305 305 305 304 305 305 305 305 304 304 304 303 303 302 301 301 300 299 298 298 297 296 295 294 293 291 290 288 287 286 285 283 282 281 280 278 277 276 275 274 273 272 271 270 270 269 268 268 267 266 266 265 265 264 264 263
302 302 303 303 303 304 304 304 304 304 304 304 304 304 304 304 304 305 305 305 305 305 305 305 305 305 305 305 305 305 305 305 305 305 305 305 305 305 305 304 304 303 303 302 302 301 300 300 299 298 297 297 296 295 293 292 291 290 288 287 286 285 284 283 281 280 279 278 277 276 275 274 273 272 271 271 270 269 268 268 267 267 266 265 265 264
301 302 302 303 303 303 304 304 304 304 304 304 304 304 304 304 304 304 304 305 305 305 305 305 305 305 305 305 305 305 306 305 305 305 305 305 305 305 305 305 304 304 303 303 302 302 301 300 299 299 298 297 297 296 295 293 292 291 290 289 287 286 285 284 283 282 281 280 279 278 277 276 275 274 273 272 272 271 270 269 269 268 267 267 266 266
301 301 302 302 303 303 303 303 304 304 304 304 304 304 304 304 304 304 304 304 304 304 304 304 305 305 305 305 305 305 305 305 305 305 305 305 305 305 305 305 304 304 303 303 303 302 301 300 300 299 299 298 297 296 295 294 293 292 291 290 289 288 287 286 285 284 283 282 281 280 279 278 277 276 275 274 273 273 272 271 270 270 269 268 268 267
300 301 301 302 302 302 303 303 303 303 303 303 303 303 303 303 303 303 303 303 303 304 304 304 304 304 304 305 305 305 305 305 305 305 305 305 305 305 305 305 304 304 303 303 303 302 301 301 300 299 299 298 298 297 296 295 294 293 292 291 290 289 288 287 286 285 285 283 283 282 281 280 279 278 277 276 275 274 274 273 272 271 271 270 269 269
299 300 300 301 301 302 302 302 302 302 302 302 302 302 302 303 303 303 303 303 303 303 303 304 304 304 304 304 304 305 305 305 304 304 304 304 305 305 305 304 304 304 303 303 303 302 301 301 300 300 299 298 298 297 296 295 294 293 292 291 291 290 289 288 287 286 285 284 284 283 282 281 280 279 278 277 277 276 275 274 273 273 272 271 270 270
299 299 300 300 300 301 301 301 301 301 301 301 301 301 302 302 302 302 302 302 302 303 303 303 303 303 304 304 304 304 304 304 304 304 304 304 305 305 305 305 304 304 303 303 303 302 302 301 300 300 299 299 298 297 296 296 295 294 293 292 291 290 289 288 287 287 286 285 284 283 282 281 281 280 279 278 277 276 276 275 274 273 272 272 271 270
298 298 299 299 300 300 300 300 301 301 301 301 301 301 301 301 301 301 301 302 302 302 302 303 303 303 303 303 303 303 304 304 304 304 304 304 304 305 305 305 304 304 304 303 303 303 302 302 301 301 300 299 299 298 297 296 295 295 294 293 292 291 290 289 288 287 287 286 285 284 283 282 281 280 279 278 278 277 276 275 274 273 273 272 271 271
297 297 298 298 299 299 300 300 300 300 300 300 300 300 300 300 300 301 301 301 301 302 302 302 302 302 302 303 303 303 303 303 303 303 304 304 304 304 304 305 304 304 304 304 304 303 303 302 302 301 301 300 300 299 298 297 297 296 295 294 293 292 291 291 290 289 288 287 286 285 284 283 282 281 280 279 278 277 276 275 274 274 273 272 271 271
296 297 297 297 298 298 299 299 299 300 300 300 300 300 300 300 300 300 300 300 301 301 301 301 301 302 302 302 302 302 302 302 302 303 303 303 304 304 304 304 304 304 304 304 304 303 303 302 302 302 301 301 300 300 299 298 298 297 296 295 294 294 293 292 291 290 289 288 287 287 285 285 283 282 281 280 279 278 277 276 275 274 273 272 271 271
295 296 296 297 297 297 298 298 299 299 299 299 299 299 299 300 299 299 299 300 300 300 300 301 301 301 301 301 301 301 302 302 302 302 303 303 303 303 304 304 304 304 304 304 304 303 303 303 302 302 302 301 301 300 300 299 298 298 297 296 296 295 294 293 293 292 291 290 289 288 287 286 285 283 282 281 280 279 278 277 276 275 274 273 272 271
295 295 295 296 296 296 297 298 298 298 299 299 299 299 299 299 299 299 299 299 300 300 300 300 300 301 301 301 301 301 301 301 302 302 303 303 303 303 304 304 304 304 304 304 303 303 303 303 303 302 302 302 301 301 300 300 299 299 298 297 297 296 295 295 294 293 292 291 290 289 288 287 285 284 283 282 281 280 278 278 277 276 275 274 273 272
295 295 295 295 295 296 296 296 297 297 298 298 298 298 298 299 299 299 299 299 300 300 300 300 300 301 301 301 301 301 301 301 302 303 303 303 303 303 304 304 304 304 304 304 304 304 303 303 303 303 303 302 302 302 301 301 300 299 299 298 297 297 296 295 294 294 293 292 291 290 289 288 286 285 284 283 282 280 279 278 278 277 276 275 274 273
295 295 295 295 295 295 296 296 296 296 297 297 297 298 298 298 298 298 299 299 299 300 300 300 300 301 301 301 301 301 302 302 302 303 303 303 303 304 304 304 304 304 304 304 304 304 304 304 303 303 303 303 302 302 302 301 301 300 300 299 298 297 297 296 295 294 293 292 291 290 289 288 287 286 285 284 283 282 281 280 279 278 277 276 275 274
296 296 295 295 295 295 295 295 296 296 296 296 297 297 297 298 298 298 299 299 299 300 300 300 301 301 301 301 301 302 302 302 303 303 304 303 304 304 304 304 304 305 305 305 305 305 305 305 304 304 304 303 303 302 302 302 301 301 300 299 299 298 297 297 296 295 294 293 292 291 290 289 288 287 286 285 284 283 282 281 280 279 278 277 276 275
296 296 296 296 295 295 295 295 295 296 296 296 296 297 297 297 298 298 298 299 299 300 300 300 301 301 301 301 301 302 302 303 303 304 304 304 304 304 304 304 305 305 305 305 305 305 305 305 305 305 304 303 303 303 302 302 301 301 301 300 299 299 298 297 296 295 294 294 293 292 291 290 289 288 287 286 285 284 283 282 281 280 279 278 277 276
295 295 295 295 295 295 295 295 295 295 295 296 296 296 297 297 297 298 298 299 299 299 300 300 300 301 301 301 301 302 302 303 303 304 304 304 304 304 304 305 305 305 305 305 305 305 305 305 305 305 304 304 303 303 302 302 301 301 301 300 300 299 298 298 297 296 295 294 293 292 291 291 290 289 288 287 286 285 284 283 282 281 280 279 278 277
295 295 295 295 295 295 295 295 295 295 296 296 296 296 297 297 297 298 298 299 299 299 300 300 300 301 301 301 301 302 302 303 303 304 304 304 304 304 305 305 305 305 306 306 306 305 305 305 305 305 304 304 303 303 302 302 302 301 301 301 300 299 299 298 297 296 295 295 294 293 292 291 290 290 289 288 287 286 285 284 283 282 281 280 279 279
294 295 295 295 295 295 295 295 296 296 296 296 296 297 297 297 298 298 298 299 299 299 299 300 300 300 301 301 302 302 302 303 303 304 304 304 304 305 305 305 305 306 306 306 306 305 305 305 305 305 304 304 304 303 303 302 302 302 301 301 300 299 299 298 297 296 296 295 294 294 293 292 291 290 290 289 288 287 286 285 284 283 282 281 280 280
294 294 294 295 295 295 295 296 296 296 296 296 297 297 297 297 298 298 298 299 299 299 299 300 300 300 300 301 301 302 302 303 304 304 304 304 305 305 305 305 306 306 306 305 306 305 305 305 305 305 304 304 304 304 303 303 302 302 301 301 300 299 299 298 297 297 296 295 295 294 294 293 292 291 290 289 289 288 287 286 285 284 283 282 281 281
293 294 294 294 295 295 295 295 296 296 296 297 297 297 298 298 298 298 299 299 299 299 299 299 300 300 300 301 301 302 303 303 304 304 304 305 305 305 305 305 305 306 305 305 305 305 305 305 305 305 305 304 304 304 304 303 303 302 301 301 300 299 299 298 298 297 297 296 295 295 294 294 293 292 291 290 289 288 287 286 286 285 284 283 283 282
292 293 293 294 294 295 295 295 296 296 296 297 297 297 298 298 298 299 299 299 299 299 299 299 300 300 301 301 302 302 303 303 304 304 304 305 305 305 305 305 305 305 305 305 305 305 305 305 305 305 305 305 304 304 304 303 303 302 301 300 300 299 299 298 298 297 297 297 296 296 295 294 293 293 292 291 290 289 288 287 287 286 286 285 284 283
292 293 293 294 294 294 295 295 296 296 297 297 297 298 298 298 298 299 299 299 299 299 299 299 300 300 301 302 302 303 303 303 304 304 304 304 305 305 305 305 305 305 305 305 305 305 305 304 305 305 305 305 304 304 303 303 302 301 301 300 299 299 298 298 298 297 297 297 297 296 296 295 294 293 292 291 291 290 289 289 288 287 287 286 285 284
292 292 293 293 294 294 295 295 295 296 296 297 297 298 298 298 298 299 299 299 299 299 299 300 300 301 301 302 302 303 303 303 304 304 304 304 304 304 304 304 304 304 304 304 304 304 304 304 304 304 304 304 304 303 303 302 301 300 300 299 299 298 298 298 298 298 297 297 297 297 296 296 295 294 293 292 291 291 290 290 289 288 288 287 287 286
291 292 292 293 293 294 294 295 295 296 296 297 297 298 298 298 298 299 299 298 299 299 299 300 300 301 302 302 302 303 303 303 303 304 304 304 304 304 304 304 304 304 304 304 304 304 304 304 304 304 304 304 303 303 302 301 300 300 299 299 298 298 299 299 298 298 298 298 297 297 296 296 295 294 294 293 292 292 291 291 290 289 289 288 288 288
291 292 292 293 293 293 294 294 295 296 296 297 297 298 298 298 298 298 298 298 298 299 299 300 301 301 302 302 302 303 303 303 303 303 303 304 304 304 304 304 304 304 304 304 304 304 304 304 304 304 304 303 303 302 301 300 299 299 298 298 298 298 299 299 299 299 298 298 297 297 296 296 295 294 294 293 293 292 292 291 291 290 290 289 289 289
291 291 292 293 293 293 294 295 295 296 296 297 297 298 298 298 298 298 298 298 298 299 299 300 301 301 302 302 302 303 303 303 303 303 303 303 304 304 304 304 304 304 304 304 304 304 304 304 304 304 303 303 302 301 300 300 299 299 298 298 298 299 299 299 299 299 299 298 297 297 296 295 295 294 294 294 293 293 292 292 291 291 291 291 291 291
291 292 292 293 293 294 294 295 296 296 297 297 298 298 298 298 298 298 298 298 298 299 300 300 301 301 301 302 302 302 303 303 303 303 303 303 304 304 304 304 304 304 305 305 305 305 305 304 304 303 303 302 301 301 300 299 299 299 299 299 299 299 299 300 300 300 299 298 298 297 296 295 295 294 294 293 293 293 292 292 292 292 292 292 292 292
291 292 292 293 293 294 295 295 296 297 297 298 298 298 298 297 297 297 298 298 299 299 300 301 301 301 301 302 302 302 302 303 303 303 303 304 304 304 304 304 304 305 305 305 305 305 305 304 304 303 302 302 301 300 299 299 299 299 299 299 299 300 300 300 300 300 300 299 298 297 296 296 295 295 294 293 293 292 292 292 292 293 293 293 293 293
292 292 293 293 294 295 295 296 297 297 297 298 298 297 297 297 297 297 298 298 299 299 300 301 301 301 301 302 302 302 302 303 303 303 303 304 304 304 304 304 305 305 305 305 305 305 304 304 303 302 302 301 300 299 299 299 299 299 299 300 300 300 301 301 301 300 300 299 298 297 297 296 296 295 294 293 292 292 292 292 293 293 294 294 293 293
292 292 293 294 294 295 296 296 297 297 297 297 297 297 297 297 297 298 298 299 299 300 300 300 301 301 301 301 302 302 302 303 303 303 304 304 304 304 305 305 305 305 305 305 305 304 304 303 302 301 301 300 299 299 299 299 299 300 300 301 301 301 301 301 301 300 299 299 298 298 297 297 296 295 294 293 293 292 292 293 293 294 294 293 293 293
292 293 293 294 295 295 296 297 297 297 297 297 297 297 297 297 298 298 298 299 299 300 300 300 301 301 301 301 302 302 302 303 303 303 304 304 304 304 305 305 305 305 305 305 304 304 303 302 301 300 300 299 299 299 299 299 300 300 301 301 301 302 301 301 301 300 299 299 298 298 298 297 296 295 294 293 293 293 293 293 293 294 294 293 293 292
293 293 294 295 295 296 296 297 297 297 297 297 297 297 297 298 298 298 299 299 300 300 300 300 301 301 301 301 302 302 303 303 303 304 304 304 304 305 305 305 305 305 305 304 304 303 302 301 300 299 299 299 299 300 300 300 300 301 301 301 302 302 301 301 300 300 299 299 299 298 298 297 296 295 294 294 294 294 294 294 294 294 294 294 293 292
294 294 295 296 296 297 297 297 297 297 297 297 297 297 297 298 298 299 299 299 300 300 300 300 301 301 301 302 302 303 303 303 304 304 304 304 305 305 305 305 305 305 305 304 303 302 301 300 300 299 299 299 300 300 300 301 301 301 302 302 302 302 301 301 300 300 299 299 299 298 298 297 296 295 295 294 294 294 294 294 294 294 294 293 293 292
295 295 296 296 297 297 297 297 297 297 297 297 297 297 298 298 299 299 299 300 300 300 300 301 301 301 302 302 303 303 303 304 304 304 304 304 305 305 305 305 305 305 304 303 302 301 300 300 299 299 299 300 300 300 301 301 302 302 303 303 302 302 301 301 300 300 300 299 299 298 298 297 296 295 295 295 294 294 294 294 294 294 294 293 293 293
Height
10518 10515 10512 10509 10507 10504 10501 10499 10498 10496 10493 10491 10490 10488 10486 10484 10483 10481 10479 10477 10476 10474 10472 10470 10468 10467 10465 10464 10462 10461 10459 10458 10457 10456 10454 10453 10451 10450 10449 10448 10446 10444 10443 10441 10441 10440 10439 10439 10438 10437 10436 10435 10434 10433 10433 10432 10431 10431 10431 10431 10431 10431 10431 10432 10432 10433 10434 10434 10435 10436 10436 10437 10438 10438 10439 10439 10441 10441 10442 10443 10443 10444 10445 10446 10446 10447
10513 10511 10508 10505 10503 10500 10497 10495 10494 10492 10489 10487 10486 10484 10483 10481 10478 10477 10475 10473 10471 10470 10468 10466 10465 10463 10462 10460 10459 10458 10456 10455 10454 10453 10451 10450 10449 10448 10446 10445 10444 10442 10441 10439 10438 10438 10437 10437 10436 10435 10434 10434 10433 10432 10432 10431 10431 10430 10429 10429 10429 10430 10430 10430 10430 10431 10431 10431 10432 10433 10434 10434 10435 10436 10436 10437 10438 10438 10439 10439 10440 10441 10441 10442 10443 10443
10509 10506 10503 10501 10499 10496 10493 10491 10489 10488 10486 10484 10482 10480 10478 10476 10474 10473 10471 10469 10468 10466 10464 10463 10461 10459 10458 10457 10456 10454 10453 10452 10451 10449 10448 10447 10446 10445 10444 10443 10441 10440 10439 10437 10436 10434 10434 10434 10434 10433 10433 10432 10431 10431 10430 10430 10429 10429 10428 10428 10428 10428 10428 10428 10428 10428 10429 10429 10429 10429 10430 10431 10431 10432 10433 10434 10434 10435 10436 10436 10436 10437 10438 10438 10439 10439
10505 10502 10499 10496 10494 10492 10489 10487 10485 10483 10482 10480 10478 10476 10474 10473 10471 10469 10468 10466 10464 10463 10461 10459 10458 10456 10454 10453 10452 10451 10449 10449 10448 10446 10445 10444 10443 10442 10441 10440 10439 10438 10436 10435 10433 10432 10431 10431 10431 10431 10430 10430 10429 10429 10428 10428 10428 10427 10427 10426 10426 10426 10426 10426 10426 10426 10426 10426 10426 10426 10427 10427 10428 10428 10428 10429 10429 10430 10431 10431 10432 10433 10433 10434 10434 10434
10501 10498 10495 10493 10490 10488 10486 10484 10481 10479 10478 10476 10474 10473 10471 10469 10467 10466 10464 10462 10461 10459 10458 10456 10454 10453 10451 10450 10449 10448 10446 10445 10444 10443 10442 10441 10439 10439 10438 10437 10436 10435 10434 10433 10431 10430 10429 10428 10427 10427 10427 10427 10427 10426 10426 10425 10425 10424 10424 10424 10424 10424 10423 10423 10423 10423 10423 10423 10423 10423 10423 10423 10424 10424 10424 10424 10424 10425 10426 10426 10426 10427 10428 10428 10429 10429
10496 10494 10491 10489 10486 10484 10482 10479 10478 10476 10474 10472 10470 10469 10467 10465 10463 10462 10460 10459 10457 10456 10454 10453 10451 10450 10448 10447 10446 10444 10443 10442 10441 10439 10438 10437 10436 10435 10434 10433 10433 10432 10431 10430 10429 10428 10426 10425 10424 10423 10423 10423 10423 10423 10423 10423 10422 10422 10421 10421 10421 10421 10421 10421 10421 10420 10420 10420 10420 10420 10420 10420 10420 10420 10420 10420 10420 10420 10421 10421 10421 10422 10423 10423 10424 10424
10492 10490 10488 10485 10483 10481 10479 10476 10474 10473 10470 10468 10466 10464 10463 10461 10460 10458 10456 10455 10454 10452 10451 10449 10448 10447 10445 10444 10443 10441 10439 10438 10437 10436 10434 10433 10432 10431 10430 10429 10428 10428 10428 10427 10426 10425 10424 10423 10421 10421 10419 10419 10419 10419 10419 10419 10419 10419 10418 10418 10418 10418 10418 10418 10418 10417 10417 10417 10417 10416 10416 10416 10416 10416 10416 10416 10416 10416 10416 10416 10417 10417 10418 10418 10418 10419
10488 10486 10484 10482 10479 10477 10474 10473 10471 10469 10467 10464 10463 10461 10459 10458 10456 10454 10453 10452 10450 10449 10448 10446 10444 10443 10442 10441 10439 10438 10436 10435 10434 10432 10431 10429 10428 10427 10426 10425 10424 10423 10423 10423 10423 10422 10421 10420 10419 10418 10417 10416 10415 10415 10414 10414 10414 10414 10414 10414 10414 10414 10414 10414 10414 10414 10414 10413 10413 10413 10413 10413 10413 10412 10412 10412 10412 10412 10412 10412 10413 10413 10413 10413 10414 10414
10484 10482 10480 10478 10476 10474 10471 10469 10467 10466 10463 10461 10459 10457 10455 10453 10452 10451 10449 10448 10447 10446 10444 10443 10441 10439 10438 10437 10436 10434 10433 10431 10430 10429 10427 10426 10424 10423 10422 10421 10419 10419 10419 10418 10418 10418 10418 10417 10416 10416 10414 10413 10412 10411 10411 10410 10410 10410 10410 10410 10410 10410 10410 10410 10409 10409 10409 10409 10409 10409 10409 10409 10408 10408 10408 10408 10408 10408 10408 10408 10408 10408 10408 10408 10408 10409
10481 10479 10476 10474 10472 10470 10468 10465 10463 10462 10460 10458 10456 10454 10452 10450 10448 10447 10445 10444 10443 10442 10441 10439 10438 10436 10434 10433 10432 10431 10429 10428 10426 10425 10424 10422 10421 10419 10418 10417 10416 10415 10414 10414 10413 10413 10413 10413 10413 10412 10411 10410 10409 10408 10408 10407 10406 10406 10406 10406 10406 10405 10405 10405 10405 10405 10405 10405 10404 10404 10404 10404 10404 10404 10403 10403 10403 10403 10403 10403 10403 10403 10403 10403 10403 10403
10476 10474 10473 10470 10468 10466 10464 10463 10460 10458 10456 10454 10453 10451 10449 10448 10446 10443 10441 10440 10439 10438 10437 10436 10434 10432 10431 10429 10428 10427 10426 10424 10423 10421 10420 10419 10417 10416 10414 10413 10412 10411 10410 10409 10409 10409 10409 10408 10408 10408 10408 10407 10406 10405 10404 10404 10403 10403 10402 10401 10401 10401 10401 10401 10401 10400 10400 10400 10399 10399 10399 10399 10399 10399 10399 10398 10398 10398 10398 10398 10398 10398 10398 10398 10398 10398
10473 10471 10469 10467 10464 10463 10461 10459 10457 10455 10453 10451 10449 10447 10445 10444 10443 10441 10439 10437 10435 10434 10433 10431 10430 10429 10427 10426 10424 10423 10422 10421 10419 10418 10417 10416 10414 10413 10411 10410 10409 10408 10407 10406 10405 10404 10404 10404 10404 10404 10403 10403 10402 10401 10401 10400 10399 10399 10398 10398 10398 10397 10396 10396 10396 10396 10396 10395 10395 10394 10394 10394 10394 10394 10394 10393 10393 10393 10393 10393 10393 10393 10393 10393 10393 10393
10469 10467 10465 10463 10461 10459 10458 10456 10454 10452 10450 10448 10446 10444 10442 10441 10439 10438 10436 10434 10433 10431 10429 10428 10426 10425 10424 10423 10421 10419 10418 10417 10416 10414 10414 10413 10411 10410 10408 10407 10406 10405 10404 10403 10402 10401 10401 10400 10400 10399 10399 10399 10398 10398 10397 10396 10396 10395 10394 10394 10394 10393 10393 10392 10392 10391 10391 10391 10390 10390 10389 10389 10389 10389 10389 10388 10388 10388 10388 10388 10388 10387 10387 10387 10387 10387
10465 10463 10461 10459 10458 10456 10454 10453 10451 10448 10447 10445 10443 10441 10439 10438 10436 10434 10433 10431 10429 10428 10426 10424 10423 10421 10420 10419 10418 10416 10414 10413 10412 10411 10410 10409 10408 10407 10406 10404 10403 10402 10401 10400 10399 10398 10397 10397 10396 10396 10395 10394 10394 10393 10393 10392 10391 10391 10390 10390 10389 10389 10388 10388 10388 10387 10386 10386 10386 10385 10385 10384 10384 10384 10383 10383 10383 10383 10383 10382 10382 10381 10381 10381 10381 10381
10461 10459 10458 10456 10454 10453 10451 10449 10447 10445 10443 10442 10440 10438 10436 10434 10433 10431 10429 10428 10426 10424 10423 10421 10419 10418 10417 10416 10414 10413 10411 10410 10409 10408 10407 10406 10405 10404 10403 10401 10399 10399 10398 10397 10396 10394 10394 10393 10393 10392 10391 10391 10390 10389 10389 10388 10388 10386 10386 10385 10384 10384 10384 10383 10383 10383 10382 10381 10381 10381 10380 10379 10379 10379 10378 10378 10378 10378 10377 10376 10376 10376 10376 10375 10375 10375
10458 10456 10454 10452 10451 10449 10447 10446 10444 10442 10440 10438 10437 10435 10433 10431 10429 10428 10426 10424 10423 10421 10419 10418 10416 10414 10413 10413 10411 10410 10408 10406 10405 10404 10403 10402 10401 10401 10399 10398 10396 10395 10394 10393 10392 10391 10390 10389 10389 10388 10388 10387 10386 10386 10385 10384 10383 10383 10381 10381 10380 10379 10379 10379 10378 10378 10377 10377 10376 10376 10375 10374 10374 10373 10373 10373 10372 10371 10371 10371 10370 10370 10369 10369 10369 10368
10454 10453 10451 10449 10447 10445 10444 10442 10440 10438 10437 10435 10433 10431 10430 10428 10426 10424 10423 10421 10419 10418 10416 10415 10413 10411 10409 10408 10408 10407 10405 10403 10401 10400 10399 10399 10398 10397 10396 10394 10393 10391 10391 10389 10388 10388 10386 10385 10384 10384 10383 10383 10382 10382 10381 10380 10379 10378 10378 10376 10376 10375 10374 10374 10373 10373 10372 10372 10371 10371 10370 10369 10369 10368 10368 10367 10366 10366 10366 10365 10364 10364 10363 10363 10362 10362
10451 10449 10447 10445 10443 10442 10440 10438 10437 10435 10433 10431 10429 10428 10426 10425 10423 10421 10419 10418 10416 10414 10413 10412 10410 10409 10407 10405 10404 10403 10402 10400 10398 10396 10396 10395 10394 10394 10393 10391 10389 10388 10386 10386 10384 10383 10382 10381 10380 10379 10379 10378 10378 10377 10376 10375 10374 10373 10373 10371 10371 10370 10369 10369 10368 10368 10367 10366 10366 10365 10364 10364 10363 10363 10362 10361 10361 10360 10359 10359 10358 10358 10357 10356 10356 10355
10447 10445 10444 10442 10440 10438 10437 10435 10433 10432 10430 10428 10426 10424 10423 10421 10420 10418 10416 10415 10413 10412 10410 10409 10407 10406 10404 10402 10401 10399 10399 10397 10394 10393 10392 10391 10391 10390 10389 10388 10386 10384 10383 10382 10381 10379 10378 10377 10376 10375 10374 10374 10373 10372 10371 10370 10369 10368 10367 10366 10365 10364 10364 10363 10363 10362 10361 10360 10359 10359 10358 10358 10357 10356 10356 10355 10354 10354 10353 10352 10351 10351 10350 10349 10349 10348
10443 10441 10440 10438 10436 10434 10433 10431 10430 10428 10426 10425 10423 10421 10419 10418 10416 10415 10413 10412 10410 10409 10408 10406 10404 10403 10401 10399 10398 10396 10395 10393 10391 10389 10388 10388 10387 10386 10386 10384 10382 10380 10379 10378 10377 10375 10374 10373 10371 10371 10369 10369 10368 10368 10366 10365 10364 10363 10361 10361 10359 10359 10358 10357 10356 10355 10354 10354 10353 10353 10351 10351 10350 10349 10349 10348 10347 10346 10346 10345 10344 10343 10343 10342 10341 10341
10439 10438 10436 10435 10433 10431 10429 10428 10427 10425 10424 10422 10420 10418 10416 10415 10413 10412 10410 10409 10407 10406 10404 10403 10401 10399 10398 10396 10394 10393 10392 10390 10388 10386 10384 10384 10383 10383 10382 10381 10378 10376 10375 10374 10373 10371 10370 10368 10367 10366 10365 10364 10364 10363 10361 10360 10359 10358 10356 10355 10354 10353 10352 10351 10350 10349 10348 10347 10346 10345 10344 10344 10343 10342 10341 10340 10339 10339 10338 10337 10336 10335 10334 10334 10333 10332
10436 10434 10433 10431 10430 10428 10426 10424 10423 10422 10420 10419 10416 10415 10413 10412 10410 10408 10407 10405 10404 10402 10401 10399 10398 10396 10395 10393 10391 10390 10388 10386 10384 10382 10381 10379 10378 10378 10378 10377 10375 10373 10371 10370 10369 10368 10366 10364 10363 10361 10361 10360 10359 10358 10356 10355 10354 10353 10351 10349 10348 10347 10346 10345 10344 10343 10342 10341 10339 10339 10338 10336 10336 10334 10333 10333 10331 10331 10329 10329 10328 10326 10326 10324 10324 10323
10433 10431 10429 10428 10426 10424 10423 10421 10419 10418 10417 10415 10413 10412 10410 10408 10406 10404 10403 10402 10400 10399 10397 10396 10394 10393 10392 10390 10388 10386 10384 10383 10381 10378 10376 10375 10374 10373 10373 10373 10371 10368 10367 10366 10364 10363 10361 10359 10358 10357 10356 10355 10354 10353 10351 10350 10349 10347 10346 10344 10343 10342 10340 10339 10338 10337 10336 10334 10333 10332 10331 10329 10328 10327 10326 10325 10324 10323 10321 10320 10319 10318 10317 10316 10314 10314
10429 10427 10426 10424 10423 10421 10419 10418 10416 10414 10413 10412 10410 10408 10407 10405 10403 10401 10400 10398 10397 10395 10394 10392 10391 10389 10388 10386 10384 10383 10381 10379 10377 10374 10373 10371 10369 10368 10368 10367 10366 10363 10362 10361 10360 10358 10356 10354 10353 10352 10351 10349 10348 10348 10346 10344 10343 10341 10340 10339 10337 10336 10334 10333 10332 10331 10329 10328 10326 10325 10324 10323 10321 10320 10319 10317 10316 10314 10313 10312 10311 10309 10308 10306 10305 10304
10426 10424 10422 10420 10419 10417 10416 10414 10412 10411 10409 10408 10406 10404 10403 10401 10399 10398 10396 10395 10393 10391 10390 10388 10387 10385 10384 10383 10381 10379 10377 10376 10374 10371 10369 10366 10364 10364 10363 10363 10361 10358 10356 10356 10355 10353 10351 10349 10347 10346 10345 10344 10343 10341 10340 10338 10337 10335 10334 10333 10331 10329 10328 10326 10325 10324 10322 10321 10319 10318 10316 10314 10313 10312 10311 10309 10308 10306 10304 10303 10301 10300 10299 10297 10296 10294
10422 10420 10418 10416 10414 10413 10411 10409 10408 10406 10405 10403 10402 10401 10399 10398 10396 10394 10393 10391 10389 10388 10386 10384 10383 10381 10380 10379 10377 10375 10373 10371 10370 10368 10366 10363 10361 10359 10358 10358 10356 10354 10351 10350 10349 10348 10346 10343 10341 10340 10339 10338 10336 10335 10333 10332 10331 10329 10328 10326 10324 10323 10321 10319 10318 10316 10314 10313 10311 10309 10308 10306 10305 10303 10301 10300 10298 10297 10295 10294 10292 10291 10289 10288 10286 10285
10418 10416 10414 10413 10411 10409 10408 10406 10404 10403 10401 10399 10398 10396 10394 10393 10391 10389 10388 10387 10386 10384 10382 10380 10378 10377 10376 10374 10373 10371 10369 10368 10366 10364 10362 10359 10356 10354 10353 10353 10351 10349 10346 10345 10344 10343 10341 10338 10336 10334 10333 10331 10329 10328 10327 10325 10324 10322 10321 10319 10317 10315 10314 10312 10310 10308 10307 10305 10303 10301 10299 10298 10296 10294 10293 10291 10289 10288 10286 10284 10283 10281 10279 10278 10276 10275
10413 10411 10410 10409 10407 10406 10404 10402 10400 10399 10397 10395 10393 10392 10390 10389 10387 10385 10383 10383 10381 10379 10378 10376 10374 10373 10371 10369 10368 10366 10364 10363 10361 10359 10358 10355 10352 10349 10348 10348 10346 10344 10341 10339 10338 10337 10335 10333 10331 10329 10326 10325 10323 10321 10320 10318 10317 10315 10313 10311 10309 10308 10306 10304 10302 10300 10298 10296 10294 10293 10291 10289 10287 10285 10283 10281 10279 10278 10276 10274 10273 10271 10270 10269 10267 10266
10408 10407 10406 10404 10403 10401 10400 10398 10396 10395 10393 10391 10389 10388 10386 10384 10383 10380 10379 10378 10376 10374 10373 10371 10370 10368 10366 10364 10363 10361 10359 10358 10356 10354 10353 10349 10346 10344 10343 10342 10340 10338 10336 10333 10331 10330 10329 10328 10326 10323 10321 10318 10316 10314 10313 10311 10309 10308 10306 10304 10302 10300 10298 10296 10294 10292 10290 10288 10286 10284 10281 10279 10278 10276 10274 10272 10270 10269 10267 10265 10264 10263 10261 10259 10258 10256
10403 10402 10401 10399 10398 10397 10395 10394 10393 10391 10389 10387 10385 10384 10382 10380 10378 10376 10374 10373 10371 10369 10368 10366 10364 10363 10361 10359 10357 10355 10353 10353 10351 10349 10348 10344 10341 10339 10338 10336 10333 10332 10330 10328 10324 10322 10321 10321 10319 10318 10315 10312 10310 10308 10306 10304 10302 10300 10298 10296 10294 10293 10290 10288 10286 10284 10281 10279 10277 10274 10273 10270 10268 10266 10264 10263 10261 10259 10258 10256 10255 10253 10252 10250 10249 10247
10399 10397 10396 10394 10393 10392 10391 10389 10388 10386 10384 10383 10381 10379 10378 10376 10374 10372 10370 10368 10367 10365 10363 10361 10359 10358 10356 10354 10352 10349 10347 10346 10345 10344 10342 10338 10335 10333 10332 10329 10326 10325 10324 10322 10318 10315 10313 10311 10311 10311 10309 10306 10303 10301 10299 10296 10294 10293 10290 10288 10286 10284 10282 10280 10278 10275 10273 10270 10268 10266 10263 10261 10259 10257 10255 10253 10252 10250 10249 10247 10246 10244 10243 10241 10240 10238
10394 10393 10391 10389 10388 10387 10385 10384 10383 10381 10379 10378 10376 10375 10373 10371 10369 10368 10366 10364 10362 10360 10358 10356 10354 10353 10351 10349 10347 10344 10342 10340 10339 10338 10336 10333 10329 10327 10326 10323 10320 10318 10316 10315 10313 10309 10306 10303 10302 10302 10302 10299 10297 10294 10292 10290 10288 10284 10283 10280 10278 10276 10273 10271 10269 10266 10264 10261 10259 10257 10254 10253 10250 10248 10246 10244 10243 10241 10240 10238 10237 10236 10234 10233 10231 10229
10389 10388 10386 10384 10383 10381 10380 10379 10378 10376 10374 10373 10371 10370 10368 10366 10364 10363 10361 10359 10358 10356 10353 10351 10349 10347 10345 10344 10341 10339 10337 10335 10333 10332 10330 10327 10324 10321 10319 10317 10314 10311 10309 10308 10306 10303 10301 10297 10294 10293 10293 10291 10290 10288 10285 10283 10281 10278 10275 10273 10269 10267 10264 10263 10260 10258 10255 10253 10251 10248 10246 10244 10242 10240 10238 10236 10234 10233 10231 10229 10228 10227 10226 10224 10223 10221
10385 10383 10381 10379 10378 10376 10375 10374 10372 10371 10369 10368 10366 10364 10363 10361 10359 10358 10356 10354 10353 10351 10349 10346 10344 10342 10339 10338 10336 10334 10332 10330 10328 10326 10324 10321 10318 10315 10313 10311 10308 10305 10303 10300 10298 10296 10293 10291 10289 10286 10284 10282 10281 10280 10278 10276 10273 10271 10268 10265 10262 10259 10256 10254 10251 10249 10246 10244 10242 10240 10238 10236 10234 10232 10230 10228 10226 10224 10223 10221 10220 10219 10218 10216 10214 10213
10380 10378 10376 10374 10373 10371 10369 10368 10367 10365 10364 10362 10361 10359 10358 10356 10354 10353 10351 10349 10348 10346 10344 10342 10339 10338 10335 10333 10330 10328 10326 10324 10323 10320 10318 10315 10312 10309 10306 10304 10302 10299 10296 10293 10291 10289 10286 10283 10281 10279 10277 10274 10272 10271 10271 10269 10266 10264 10261 10258 10255 10251 10248 10246 10243 10241 10238 10236 10234 10232 10230 10228 10226 10224 10222 10220 10218 10216 10214 10213 10212 10211 10209 10208 10206 10205
10376 10374 10372 10370 10368 10366 10364 10363 10361 10360 10358 10357 10355 10354 10352 10351 10349 10347 10345 10344 10342 10340 10338 10336 10334 10333 10331 10328 10326 10323 10320 10318 10316 10314 10312 10309 10306 10303 10300 10297 10295 10293 10290 10287 10284 10283 10279 10276 10274 10272 10270 10267 10264 10261 10261 10259 10258 10256 10253 10251 10248 10245 10241 10239 10236 10233 10231 10228 10226 10224 10223 10221 10219 10216 10214 10213 10211 10208 10207 10205 10204 10203 10201 10200 10199 10198
10371 10369 10367 10366 10364 10362 10360 10358 10356 10355 10353 10351 10350 10348 10347 10345 10343 10341 10340 10338 10336 10334 10332 10330 10329 10327 10325 10323 10321 10318 10316 10313 10311 10308 10306 10303 10301 10298 10294 10291 10289 10287 10284 10281 10278 10275 10273 10269 10266 10264 10262 10259 10257 10254 10251 10250 10249 10247 10244 10243 10240 10238 10234 10232 10229 10226 10224 10221 10219 10217 10215 10213 10211 10209 10207 10204 10203 10201 10199 10198 10196 10195 10194 10192 10191 10189
10367 10364 10363 10361 10359 10357 10355 10353 10351 10350 10348 10346 10344 10343 10341 10339 10338 10336 10334 10332 10330 10328 10326 10324 10323 10321 10319 10317 10315 10313 10310 10308 10305 10303 10300 10297 10294 10291 10288 10285 10282 10280 10278 10276 10272 10269 10266 10263 10260 10256 10254 10251 10249 10247 10244 10242 10239 10238 10236 10234 10233 10231 10228 10226 10223 10221 10218 10215 10212 10210 10208 10206 10204 10201 10199 10197 10195 10193 10191 10190 10189 10188 10186 10184 10183 10182
10362 10359 10358 10356 10354 10352 10350 10348 10346 10345 10343 10341 10340 10338 10336 10334 10333 10331 10329 10326 10324 10323 10321 10319 10317 10314 10313 10311 10309 10307 10304 10302 10299 10297 10294 10291 10289 10286 10283 10279 10276 10274 10272 10269 10266 10263 10260 10257 10254 10251 10248 10244 10241 10239 10237 10235 10233 10230 10228 10226 10224 10223 10222 10220 10218 10215 10213 10209 10206 10203 10201 10199 10196 10194 10191 10189 10188 10186 10184 10183 10181 10180 10179 10177 10176 10174
10357 10355 10353 10351 10349 10348 10346 10344 10342 10340 10339 10337 10335 10333 10331 10329 10327 10325 10323 10321 10319 10317 10314 10313 10311 10309 10307 10305 10303 10301 10298 10296 10293 10291 10288 10285 10283 10280 10277 10274 10271 10268 10265 10263 10260 10258 10254 10251 10248 10244 10242 10239 10235 10231 10229 10227 10225 10223 10221 10218 10216 10214 10214 10213 10212 10209 10208 10204 10201 10198 10194 10192 10189 10187 10184 10183 10181 10179 10178 10176 10174 10173 10171 10170 10168 10166
10352 10350 10348 10346 10344 10343 10341 10339 10338 10336 10334 10332 10330 10328 10326 10324 10322 10319 10317 10315 10313 10311 10309 10307 10305 10303 10301 10299 10298 10295 10293 10290 10288 10284 10282 10279 10276 10274 10271 10268 10265 10262 10259 10256 10253 10251 10248 10244 10241 10238 10235 10232 10229 10226 10223 10220 10218 10216 10214 10211 10209 10208 10207 10206 10205 10204 10201 10199 10196 10193 10189 10186 10183 10181 10178 10176 10174 10172 10171 10169 10167 10166 10164 10163 10162 10160
10346 10344 10343 10341 10339 10338 10336 10334 10333 10331 10329 10328 10326 10323 10321 10319 10317 10314 10312 10309 10307 10305 10303 10301 10299 10297 10295 10293 10291 10289 10287 10284 10281 10279 10276 10273 10270 10267 10264 10261 10259 10256 10253 10249 10246 10243 10241 10238 10234 10231 10228 10225 10222 10219 10215 10213 10211 10209 10208 10205 10203 10201 10199 10199 10199 10198 10196 10193 10191 10188 10185 10181 10178 10175 10172 10169 10168 10166 10164 10163 10161 10159 10158 10156 10155 10154
10341 10339 10338 10336 10334 10333 10331 10329 10327 10326 10324 10323 10320 10318 10316 10314 10312 10309 10306 10304 10301 10299 10298 10296 10294 10292 10289 10286 10284 10283 10281 10278 10276 10273 10270 10267 10264 10261 10258 10254 10252 10249 10246 10243 10239 10235 10233 10230 10228 10224 10221 10218 10215 10212 10209 10206 10204 10203 10201 10199 10198 10195 10193 10192 10192 10191 10189 10187 10184 10182 10179 10176 10173 10170 10167 10164 10162 10159 10158 10156 10154 10153 10151 10150 10149 10148
10336 10334 10332 10331 10329 10327 10325 10323 10322 10320 10319 10317 10314 10313 10311 10309 10306 10304 10301 10299 10296 10294 10292 10290 10288 10286 10283 10281 10279 10276 10274 10272 10269 10267 10264 10261 10258 10254 10251 10248 10244 10241 10239 10236 10232 10228 10224 10222 10219 10217 10214 10211 10208 10205 10203 10200 10198 10196 10194 10193 10192 10190 10188 10186 10184 10183 10182 10180 10178 10176 10174 10171 10168 10164 10162 10159 10157 10154 10152 10150 10149 10148 10146 10145 10144 10142
10331 10329 10327 10325 10323 10321 10319 10318 10316 10315 10313 10311 10309 10307 10304 10303 10301 10298 10296 10293 10291 10289 10287 10285 10283 10280 10277 10275 10273 10271 10268 10265 10263 10260 10258 10254 10251 10248 10244 10241 10238 10234 10231 10228 10225 10222 10219 10214 10211 10209 10207 10204 10202 10199 10196 10194 10192 10190 10189 10188 10186 10184 10182 10181 10179 10177 10175 10173 10171 10169 10168 10165 10162 10159 10156 10154 10151 10149 10148 10146 10144 10143 10141 10140 10139 10137
10325 10323 10321 10319 10318 10316 10314 10313 10311 10309 10308 10305 10303 10301 10299 10297 10294 10292 10290 10288 10285 10283 10281 10279 10277 10274 10271 10269 10266 10264 10261 10259 10256 10254 10251 10248 10244 10241 10238 10235 10231 10228 10224 10221 10218 10215 10212 10209 10205 10202 10199 10197 10195 10193 10191 10189 10187 10184 10183 10182 10180 10178 10176 10175 10173 10171 10169 10167 10165 10163 10161 10159 10156 10154 10151 10148 10146 10144 10143 10141 10140 10138 10137 10136 10134 10132
10319 10318 10316 10314 10313 10311 10309 10308 10306 10304 10301 10299 10298 10295 10293 10291 10289 10286 10284 10282 10280 10278 10274 10273 10271 10268 10265 10263 10260 10258 10255 10252 10249 10247 10244 10241 10238 10235 10232 10228 10225 10221 10218 10214 10211 10208 10204 10202 10199 10197 10194 10191 10188 10186 10185 10184 10182 10180 10178 10176 10174 10173 10171 10169 10168 10166 10163 10161 10159 10157 10155 10153 10151 10148 10145 10143 10141 10139 10138 10137 10136 10134 10133 10131 10129 10128
10314 10313 10311 10309 10308 10306 10304 10302 10301 10298 10296 10294 10291 10289 10287 10285 10283 10281 10278 10276 10274 10271 10269 10266 10264 10261 10259 10256 10254 10251 10249 10246 10243 10240 10238 10235 10232 10229 10225 10222 10218 10215 10211 10208 10204 10201 10198 10195 10193 10191 10189 10186 10183 10181 10179 10178 10177 10175 10173 10171 10169 10167 10165 10163 10162 10160 10158 10156 10153 10151 10149 10147 10144 10142 10139 10137 10135 10134 10133 10132 10131 10130 10129 10127 10125 10123
10309 10307 10305 10303 10302 10300 10298 10296 10294 10293 10290 10288 10285 10283 10281 10279 10278 10275 10273 10270 10268 10265 10263 10260 10258 10254 10252 10249 10247 10245 10242 10239 10236 10234 10231 10228 10225 10222 10219 10216 10212 10209 10204 10201 10198 10194 10191 10188 10186 10184 10184 10181 10178 10175 10173 10172 10171 10169 10168 10166 10164 10162 10159 10158 10156 10154 10153 10150 10148 10146 10144 10141 10139 10136 10134 10132 10130 10129 10128 10128 10127 10126 10124 10123 10121 10119
10303 10301 10299 10298 10296 10294 10293 10291 10288 10286 10284 10282 10279 10277 10275 10273 10271 10269 10267 10264 10261 10259 10256 10254 10251 10248 10245 10243 10240 10238 10235 10233 10229 10226 10224 10221 10219 10216 10213 10209 10206 10203 10198 10194 10191 10188 10184 10181 10178 10178 10178 10177 10174 10171 10168 10166 10165 10164 10163 10161 10159 10157 10154 10152 10151 10149 10147 10145 10143 10141 10138 10136 10134 10131 10129 10127 10126 10124 10123 10123 10122 10121 10120 10119 10117 10115
10297 10296 10294 10292 10290 10288 10286 10284 10282 10280 10278 10276 10273 10271 10269 10267 10264 10263 10260 10258 10255 10253 10249 10248 10244 10242 10239 10236 10233 10231 10228 10226 10223 10219 10217 10214 10212 10209 10206 10203 10200 10196 10193 10188 10184 10181 10179 10175 10172 10170 10169 10171 10170 10167 10163 10161 10159 10158 10157 10155 10153 10151 10149 10147 10145 10143 10141 10139 10138 10135 10133 10131 10128 10126 10124 10123 10121 10119 10118 10118 10117 10117 10116 10114 10113 10111